Weather reports worldwide

Advertisment
Forli, Italy (16147): temperature & dewpoint: 18.01.2019 00:00:00 - 24.01.2019 00:00:00 (CET)Forli, Italy (16147): wind speed: 18.01.2019 00:00:00 - 24.01.2019 00:00:00 (CET)Forli, Italy (16147): wind direction: 18.01.2019 00:00:00 - 24.01.2019 00:00:00 (CET)Forli, Italy (16147): reduced air pressure: 18.01.2019 00:00:00 - 24.01.2019 00:00:00 (CET)Forli, Italy (16147): visibility: 18.01.2019 00:00:00 - 24.01.2019 00:00:00 (CET)Forli, Italy (16147): precipitation: 18.01.2019 00:00:00 - 24.01.2019 00:00:00 (CET)
Date & Time tt [°C] td [°C] ff [km/h] ff [kn] dd ppp [hPa] vv [km] rr [mm]
24.01.2019 00:00:00 - - - - - - - -
23.01.2019 23:00:00 1,1 0,4 8 4 W 992,5 - 1,6
23.01.2019 22:00:00 1,6 0,7 6 3 W 992,4 - 1,2
23.01.2019 21:00:00 2,0 0,8 6 4 NW 992,5 - 1,0
23.01.2019 20:00:00 2,2 0,7 1 1 E 992,8 - 1,2
23.01.2019 19:00:00 3,0 0,4 6 3 E 993,0 - 0,2
23.01.2019 18:00:00 3,2 0,1 0 0 N 992,8 8 0,0
23.01.2019 17:00:00 3,2 -0,1 9 5 ENE 992,8 8 0,0
23.01.2019 16:00:00 3,3 -0,2 4 2 - 993,2 8 0,0
23.01.2019 15:00:00 3,6 -0,4 4 2 - 993,6 8 0,0
23.01.2019 14:00:00 3,2 -0,3 2 1 - 993,8 8 0,0
23.01.2019 13:00:00 3,3 -0,2 2 1 - 994,6 8 0,0
23.01.2019 12:00:00 2,9 -0,6 0 0 N 995,2 8 0,0
23.01.2019 11:00:00 2,2 -0,9 0 0 N 996,3 6 0,0
23.01.2019 10:00:00 1,8 -0,6 0 0 N 996,5 6 0,0
23.01.2019 09:00:00 1,6 -0,5 4 2 N 996,7 - 0,0
23.01.2019 08:00:00 1,4 -0,1 3 2 W 997,0 - 0,0
23.01.2019 07:00:00 1,3 0,0 5 3 WSW 997,3 - 0,0
23.01.2019 06:00:00 1,3 0,0 7 4 WNW 997,5 - 0,0
23.01.2019 05:00:00 1,3 0,3 12 7 NW 997,7 - 0,2
23.01.2019 04:00:00 1,0 0,1 9 5 W 998,0 - 0,4
23.01.2019 03:00:00 1,5 0,2 - - - 998,5 - 0,2
23.01.2019 02:00:00 2,0 -0,1 9 5 W 998,6 - 0,0
23.01.2019 01:00:00 2,3 -0,3 8 4 W 999,2 - 0,0
23.01.2019 00:00:00 2,2 -0,2 5 3 WSW 999,9 - 0,2
22.01.2019 23:00:00 2,0 0,1 5 3 WSW 1000,3 - 0,2
22.01.2019 22:00:00 1,9 0,1 8 4 W 1000,5 - 0,4
22.01.2019 21:00:00 1,6 0,3 5 3 WSW 1001,1 - 0,2
22.01.2019 20:00:00 1,1 0,1 8 4 W 1001,3 - 0,6
22.01.2019 19:00:00 0,9 0,0 9 5 W 1001,6 - 0,6
22.01.2019 18:00:00 1,0 0,4 11 6 W 1001,9 4,0 -
22.01.2019 17:00:00 0,6 0,2 9 5 W 1002,3 2,0 0,8
22.01.2019 16:00:00 0,4 0,0 5 3 - 1002,8 0,8 0,6
22.01.2019 15:00:00 0,3 -0,3 8 4 W 1003,4 0,8 0,6
22.01.2019 14:00:00 0,3 -0,3 9 5 W 1004,1 1,3 0,2
22.01.2019 13:00:00 0,5 -0,4 11 6 W 1005,1 1,5 0,6
22.01.2019 12:00:00 1,1 -0,4 11 6 WNW 1006,2 2,5 0,2
22.01.2019 11:00:00 1,5 -0,7 18 10 W 1007,2 2,5 0,2
22.01.2019 10:00:00 2,3 -2,2 9 5 W 1007,5 3,0 0,0
22.01.2019 09:00:00 2,5 -1,8 13 7 WNW 1007,7 - 0,0
22.01.2019 08:00:00 2,1 -1,2 15 8 WNW 1007,9 - 0,0
22.01.2019 07:00:00 2,1 -0,3 7 4 W 1008,1 - 0,0
22.01.2019 06:00:00 2,0 -0,3 11 6 WNW 1008,6 - 0,0
22.01.2019 05:00:00 2,1 -0,2 12 6 W 1009,1 - 0,2
22.01.2019 04:00:00 3,2 -1,0 13 7 WNW 1009,7 - 0,0
22.01.2019 03:00:00 3,4 -0,2 14 7 WNW 1010,5 - 0,0
22.01.2019 02:00:00 3,5 -0,5 11 6 WNW 1011,0 - 0,0
22.01.2019 01:00:00 3,7 -0,7 11 6 WNW 1011,8 - 0,0
22.01.2019 00:00:00 3,7 -0,5 13 7 WNW 1012,3 - 0,0
21.01.2019 23:00:00 3,7 -0,1 11 6 WNW 1012,6 - 0,0
21.01.2019 22:00:00 3,7 0,4 9 5 WNW 1012,8 - 0,0
21.01.2019 21:00:00 3,6 1,0 5 3 W 1012,9 - 0,0
21.01.2019 20:00:00 3,6 1,2 4 2 W 1013,1 - 0,0
21.01.2019 19:00:00 3,6 1,2 5 3 W 1013,1 - 0,0
21.01.2019 18:00:00 3,4 1,3 5 3 - 1013,1 3,0 0,0
21.01.2019 17:00:00 3,6 1,3 4 2 - 1013,3 3,0 0,0
21.01.2019 16:00:00 3,8 1,0 11 6 WNW 1013,5 3,0 0,0
21.01.2019 15:00:00 4,2 0,2 8 4 W 1013,5 3,0 0,0
21.01.2019 14:00:00 4,1 1,0 8 4 W 1013,7 3,0 0,0
21.01.2019 13:00:00 3,8 1,0 8 4 W 1014,4 3,0 0,0
21.01.2019 12:00:00 3,5 0,5 9 5 W 1014,8 4,0 0,0
21.01.2019 11:00:00 3,8 1,2 5 3 - 1015,3 4,0 0,2
21.01.2019 10:00:00 3,5 0,4 5 3 - 1015,2 4,0 0,0
21.01.2019 09:00:00 3,3 0,2 5 3 W 1014,8 - 0,0
21.01.2019 08:00:00 3,3 -0,2 8 4 W 1014,4 - 0,0
21.01.2019 07:00:00 3,3 -0,3 4 2 W 1014,3 - 0,0
21.01.2019 06:00:00 3,4 -1,2 2 1 W 1014,2 - 0,0
21.01.2019 05:00:00 3,6 -0,1 3 2 W 1014,3 - 0,0
21.01.2019 04:00:00 3,6 0,6 3 2 WSW 1014,4 - 0,0
21.01.2019 03:00:00 3,7 0,4 - - - 1014,6 - -
21.01.2019 02:00:00 3,6 0,6 3 2 W 1014,3 - 0,0
21.01.2019 01:00:00 3,9 0,1 0 0 W 1014,4 - 0,0
21.01.2019 00:00:00 3,7 0,2 4 2 NW 1014,5 - 0,0
20.01.2019 23:00:00 4,0 0,2 3 2 WNW 1014,4 - 0,0
20.01.2019 22:00:00 4,1 0,3 2 1 W 1014,1 - 0,0
20.01.2019 21:00:00 4,3 -0,1 1 1 W 1013,9 - 0,0
20.01.2019 20:00:00 4,5 -1,1 0 0 SE 1013,6 - 0,0
20.01.2019 19:00:00 - - - - - - - -
20.01.2019 18:00:00 4,4 -1,2 - - - 1013,0 - -
20.01.2019 17:00:00 4,4 -0,8 5 3 N 1012,9 - 0,0
20.01.2019 16:00:00 4,7 -0,7 5 3 N 1012,8 - 0,0
20.01.2019 15:00:00 5,0 -0,8 7 4 NNW 1012,6 - 0,0
20.01.2019 14:00:00 5,1 -0,7 6 4 NNW 1012,7 - 0,0
20.01.2019 13:00:00 5,2 -1,1 6 3 N 1013,0 - 0,0
20.01.2019 12:00:00 5,0 -0,6 3 1 NNW 1013,4 - 0,0
20.01.2019 11:00:00 4,3 0,3 1 0 NNW 1013,5 - 0,0
20.01.2019 10:00:00 4,0 1,0 0 0 NNW 1013,3 - 0,0
20.01.2019 09:00:00 3,5 0,9 4 2 NNW 1012,8 - 0,0
20.01.2019 08:00:00 3,7 0,9 0 0 WSW 1012,4 - 0,0
20.01.2019 07:00:00 3,8 1,2 2 1 SW 1012,2 - 0,0
20.01.2019 06:00:00 3,9 1,1 0 0 W 1012,1 - -
20.01.2019 05:00:00 3,8 1,2 - - - 1012,2 - 0,0
20.01.2019 04:00:00 3,9 0,8 1 1 W 1012,5 - 0,0
20.01.2019 03:00:00 3,8 1,2 2 1 W 1012,9 - 0,0
20.01.2019 02:00:00 3,7 1,2 - - - 1012,8 - 0,0
20.01.2019 01:00:00 3,7 1,4 4 2 W 1013,1 - 0,0
20.01.2019 00:00:00 4,0 1,4 - - - 1013,4 - 0,0
19.01.2019 23:00:00 3,9 1,4 - - - 1013,5 - -
19.01.2019 22:00:00 4,3 1,8 5 3 WNW 1013,4 - 0,0
19.01.2019 21:00:00 4,5 2,0 5 3 W 1013,2 - 0,0
19.01.2019 20:00:00 4,4 2,4 4 2 WSW 1013,2 - 0,0
19.01.2019 19:00:00 4,3 2,5 4 2 WSW 1013,1 - 0,0
19.01.2019 18:00:00 4,6 2,5 - - - 1012,9 - 0,0
19.01.2019 17:00:00 4,7 2,2 - - - 1013,1 - 0,0
19.01.2019 16:00:00 4,8 2,2 6 3 W 1013,2 - 0,0
19.01.2019 15:00:00 4,6 2,5 5 3 WSW 1013,3 - 0,0
19.01.2019 14:00:00 4,4 1,9 6 3 W 1013,5 - 0,2
19.01.2019 13:00:00 4,0 2,5 5 3 W 1013,9 - 1,6
19.01.2019 12:00:00 3,7 1,7 8 5 W 1014,4 - 1,0
19.01.2019 11:00:00 3,8 1,5 16 8 WNW 1014,4 - 0,0
19.01.2019 10:00:00 4,1 1,5 17 9 WNW 1014,1 - 0,0
19.01.2019 09:00:00 4,0 2,0 14 7 WNW 1013,6 - 0,0
19.01.2019 08:00:00 4,0 2,7 - - - 1013,3 - 0,2
19.01.2019 07:00:00 4,1 3,1 8 4 W 1013,1 - 0,2
19.01.2019 06:00:00 4,4 3,4 9 5 WNW 1013,0 - 1,0
19.01.2019 05:00:00 5,3 4,3 4 2 WNW 1013,1 - 0,0
19.01.2019 04:00:00 5,9 4,5 3 2 N 1013,0 - 0,6
19.01.2019 03:00:00 5,5 4,6 6 3 NNE 1013,2 - 0,2
19.01.2019 02:00:00 5,6 5,0 1 0 ESE 1013,3 - 2,8
19.01.2019 01:00:00 5,6 5,0 6 3 N 1013,3 - 1,0
19.01.2019 00:00:00 6,0 5,3 0 0 NNW 1013,3 - 0,0
18.01.2019 23:00:00 - - - - - - - -
18.01.2019 22:00:00 6,0 5,3 0 0 ESE 1013,0 - 0,2
18.01.2019 21:00:00 6,1 5,2 0 0 S 1012,7 - 0,0
18.01.2019 20:00:00 5,9 5,0 0 0 SSW 1012,4 - 0,0
18.01.2019 19:00:00 5,9 5,2 0 0 WSW 1012,4 - 0,0
18.01.2019 18:00:00 5,7 5,0 2 1 - 1011,9 1,0 0,2
18.01.2019 17:00:00 5,7 5,0 5 3 - 1011,5 1,0 0,8
18.01.2019 16:00:00 6,2 4,7 5 3 - 1011,4 1,0 0,0
18.01.2019 15:00:00 5,8 4,6 5 3 - 1010,8 1,5 0,0
18.01.2019 14:00:00 6,4 4,7 2 1 - 1010,5 2,5 0,0
18.01.2019 13:00:00 6,6 4,8 0 0 N 1010,2 3,0 0,0
18.01.2019 12:00:00 6,6 4,6 0 0 N 1010,4 3,0 0,0
18.01.2019 11:00:00 6,2 4,5 2 1 - 1010,1 2,5 0,0
18.01.2019 10:00:00 6,0 4,5 0 0 N 1009,5 2,5 0,0
18.01.2019 09:00:00 5,5 4,5 5 3 NW 1008,8 - 1,4
18.01.2019 08:00:00 5,5 4,0 2 1 SW 1007,9 - 0,0
18.01.2019 07:00:00 5,1 3,8 1 1 SW 1007,5 - 0,0
18.01.2019 06:00:00 5,2 3,7 10 5 WNW 1007,1 - 0,0
18.01.2019 05:00:00 5,1 3,3 11 6 WNW 1006,9 - 0,0
18.01.2019 04:00:00 5,6 2,9 13 7 WNW 1006,9 - 0,0
18.01.2019 03:00:00 10,1 3,6 0 0 S 1006,6 - 0,0
18.01.2019 02:00:00 10,3 3,6 1 0 WSW 1006,9 - 0,0
18.01.2019 01:00:00 9,7 3,4 5 3 W 1007,1 - 0,0
18.01.2019 00:00:00 8,8 3,2 3 1 SSE 1007,6 - 0,0

tt = temperature
td = dewpoint
ff = wind speed
dd = wind direction
ppp = reduced air pressure
vv = visibility
rr = precipitation

Next stations